Regional Weather Roundup
Issued by NWS

Home | Current Version | Previous Version | Graphics & Text | Print | Product List | Glossary On
Versions: 1 2 3 4 5 6 7 8 9 10 11 12 13 14 15 16 17 18 19 20 21 22 23 24 25 26 27 28 29 30 31 32 33 34 35 36 37 38 39 40 41 42 43 44 45 46 47 48 49 50
000
ASUS43 KOAX 220410
RWRNE

WEATHER ROUNDUP FOR NEBRASKA
NATIONAL WEATHER SERVICE OMAHA NE
1100 PM CDT SAT OCT 21 2017

NOTES: SATELLITE DATA IS BEING USED TO AUGMENT CLOUD COVER ABOVE
       12000 FEET.
       "FAIR" INDICATES FEW OR NO CLOUDS BELOW 12,000 FEET WITH NO
       SIGNIFICANT WEATHER AND/OR OBSTRUCTIONS TO VISIBILITY.


NEZ001>004-019>022-054>056-220500-
NEBRASKA PANHANDLE

CITY           SKY/WX    TMP DP  RH WIND       PRES   REMARKS
SCOTTSBLUFF    CLEAR     43  17  35 W9        30.07R
ALLIANCE       CLEAR     30  19  63 NW6       30.05R HAZE    WCI  24
CHADRON        CLEAR     32  13  45 SW7       30.02R WCI  26
GORDON         FAIR      32  23  69 SW6       30.02R WCI  26
KIMBALL        CLEAR     33  17  50 W9        30.12R WCI  26
SIDNEY         CLEAR     36  16  44 W9        30.11R WCI  29
$$

NEZ057>060-069>072-079>082-220500-
SOUTHWEST NEBRASKA

CITY           SKY/WX    TMP DP  RH WIND       PRES   REMARKS
NORTH PLATTE   CLEAR     34  27  75 CALM      30.06R
IMPERIAL       CLEAR     44  20  38 W7        30.08R
LEXINGTON      CLEAR     37  29  73 W7        30.03S WCI  32
MCCOOK         CLEAR     42  26  53 W13       30.05R
OGALLALA       CLEAR     45  23  41 W14       30.06S
$$

NEZ005>010-023>029-035>040-094-220500-
NORTH CENTRAL NEBRASKA

CITY           SKY/WX    TMP DP  RH WIND       PRES   REMARKS
VALENTINE      CLEAR     36  29  75 W5        29.99S WCI  32
AINSWORTH      CLEAR     37  31  78 SW6       30.01R WCI  32
BROKEN BOW     CLEAR     34  27  75 CALM      30.01R
O`NEILL        CLEAR     39  32  77 SW5       30.01R
ORD            CLEAR     36  32  85 NW6       30.01R WCI  31
THEDFORD       CLEAR     37  28  69 NW6       30.03R WCI  32
$$

NEZ041-046>049-061>064-073>077-083>087-220500-
SOUTH CENTRAL NEBRASKA

CITY           SKY/WX    TMP DP  RH WIND       PRES   REMARKS
GRAND ISLAND   CLEAR     43  40  89 W3        30.02R
AURORA         CLOUDY    42  38  87 W5        30.01R
HASTINGS       CLOUDY    43  37  79 SW3       30.02S
HEBRON         CLOUDY    48  41  75 CALM      30.03R
HOLDREGE       CLOUDY    42  33  68 W5        30.02F
KEARNEY        PTCLDY    41  34  76 CALM      30.02S
YORK           MOCLDY    43  39  87 CALM      30.01R
$$

NEZ011>018-030>034-042>045-220500-
NORTHEAST NEBRASKA

CITY           SKY/WX    TMP DP  RH WIND       PRES   REMARKS
NORFOLK        CLEAR     38  35  89 CALM      30.00R
ALBION         CLOUDY    36  34  93 CALM      30.01R
BLAIR          CLOUDY    50  40  70 CALM      29.99R
COLUMBUS       CLOUDY    40  37  89 W3        30.02R
FREMONT        CLOUDY    47  39  72 W6        30.00R
TEKAMAH        CLOUDY    46  40  79 CALM      29.98R
WAYNE          CLEAR     38  36  92 S3        29.98R
$$

NEZ050>053-065>068-078-088>093-220500-
SOUTHEAST NEBRASKA

CITY           SKY/WX    TMP DP  RH WIND       PRES   REMARKS
LINCOLN        CLOUDY    51  39  63 CALM      30.01R
OMAHA EPPLEY   CLOUDY    52  40  63 N3        29.99R
BEATRICE       CLOUDY    49  43  79 NW3       30.00F
FALLS CITY     CLOUDY    54  44  69 NW8       29.99R
NEBRASKA CITY  CLOUDY    54  41  62 N7        29.99S
PLATTSMOUTH    CLOUDY    53  41  64 NW3       30.00R
$$

NEZ044-045-051>053-067-220500-
OMAHA AREA

CITY           SKY/WX    TMP DP  RH WIND       PRES   REMARKS
OMAHA EPPLEY   CLOUDY    52  40  63 N3        29.99R
BLAIR          CLOUDY    50  40  70 CALM      29.99R
FREMONT        CLOUDY    47  39  72 W6        30.00R
MILLARD        CLOUDY    52  42  67 NW5       29.99R
PLATTSMOUTH    CLOUDY    53  41  64 NW3       30.00R
WAHOO          FAIR      49  39  70 W3        30.00R
$$



USA.gov is the U.S. government's official web portal to all federal, state and local government web resources and services.